Home   Weather   Cincinnati   Past weeks

Flag for USA Past Weather in Cincinnati, Ohio, USA — Yesterday and Last 2 Weeks

Now
59 °F

Light rain. Overcast.


Feels Like: 59 °F
Forecast: 54 / 67 °F
Wind: 5 mph from East

Location: Cincinnati Municipal Airport Lunken Field

Current Time: Sep 30, 2016 at 1:10:01 AM

Latest Report: Sep 29, 2016 at 11:53 PM


Visibility: 10 mi

Pressure: 30.09 "Hg

Humidity: 96%

Dew Point: 58 °F

Location of CincinnatiLocation

Past Weather in Cincinnati — Graph

°F

Cincinnati Temperature Yesterday

Maximum temperature yesterday: 65 °F (at 1:53 PM)
Minimum temperature yesterday: 50 °F (at 1:53 AM)
Average temperature yesterday: 57 °F

High & Low Weather Summary for the Past Weeks

 TemperatureHumidityPressure
High89 °F (Sep 23, 4:53 PM)100% (Sep 15, 1:53 AM)30.22 "Hg (Sep 15, 1:53 AM)
Low46 °F (Sep 27, 6:53 AM)35% (Sep 27, 1:53 PM)29.81 "Hg (Sep 28, 8:53 AM)
Average68 °F85%30.05 "Hg
* Reported Sep 14 11:53 PM — Sep 29 11:53 PM, Cincinnati, Weather by CustomWeather, © 2016

Note: Actual official high and low records may vary slightly from our data, if they occured in-between our weather recording intervals... More about our weather records

Advertising

Cincinnati Weather History for the Previous 24 Hours

Scroll right to see more
 ConditionsComfort  
Time TempWeatherWind HumidityBarometerVisibility
11:53 PM
Thu, Sep 29
59 °FLight rain. Overcast.5 mph96%30.09 "Hg10 mi
10:53 PM58 °FFog.No wind100%30.08 "Hg6 mi
9:53 PM57 °FFog.3 mph100%30.08 "Hg3 mi
8:53 PM58 °FPartly cloudy.3 mph100%30.09 "Hg8 mi
7:53 PM57 °FFog.3 mph100%30.08 "Hg6 mi
6:53 PM60 °FPartly sunny.3 mph100%30.07 "Hg10 mi
5:53 PM62 °FPartly sunny.No wind86%30.07 "Hg10 mi
4:53 PM61 °FPartly sunny.No wind87%30.07 "Hg10 mi
3:53 PM61 °FLight rain. Overcast.3 mph81%30.07 "Hg7 mi
2:53 PM65 °FPartly sunny.3 mph68%30.08 "Hg10 mi
1:53 PM65 °FPartly sunny.N/A70%30.08 "Hg10 mi
12:53 PM61 °FPartly sunny.6 mph78%30.08 "Hg10 mi
11:53 AM59 °FOvercast.6 mph87%30.09 "Hg10 mi
10:53 AM58 °FMostly cloudy.7 mph90%30.08 "Hg7 mi
10:00 AM57 °FFog.3 mph90%30.07 "Hg5 mi
8:53 AM55 °FFog.No wind93%30.06 "Hg3 mi
7:53 AM53 °FFog.No wind100%30.04 "Hg3 mi
6:53 AM53 °FFog.3 mph100%30.01 "Hg4 mi
5:53 AM53 °FOvercast.No wind100%29.99 "HgN/A
4:53 AM53 °FPassing clouds.No wind100%29.98 "HgN/A
3:53 AM53 °FOvercast.No wind100%29.98 "HgN/A
2:53 AM53 °FPassing clouds.3 mph100%29.98 "HgN/A
1:53 AM50 °FPassing clouds.5 mph100%29.97 "HgN/A
Weather by CustomWeather, © 2016

See weather overviewHow to use our weather pages